Regional Weather Roundup
Issued by NWS Charleston, SC

Current Version | Previous Version | Graphics & Text | Print | Product List | Glossary On
Versions: 1 2 3 4 5 6 7 8 9 10 11 12 13 14 15 16 17 18 19 20 21 22 23 24 25 26 27 28 29 30 31 32 33 34 35 36 37 38 39 40 41 42 43 44 45 46 47 48 49 50
000
ASUS42 KCHS 240527
RWRCHS

REGIONAL WEATHER ROUNDUP
NATIONAL WEATHER SERVICE CHARLESTON SC
100 AM EDT SAT JUN 24 2017

NOTE: "FAIR" INDICATES FEW OR NO CLOUDS BELOW 12,000 FEET WITH NO
SIGNIFICANT WEATHER AND/OR OBSTRUCTIONS TO VISIBILITY.

NOT ALL STATIONS ARE QUALITY CONTROLLED. USE DATA WITH CAUTION...
ESPECIALLY DEWPOINT OBSERVATIONS.

SCZ027-030-031-034>040-042>050-240600-
...SOUTHEAST SOUTH CAROLINA...

CITY           SKY/WX    TMP DP  RH WIND       PRES   REMARKS
N CHARLESTON   PTCLDY    80  73  79 S15       30.00F
WATERFRONT PRK   N/A     81  77  88 SW10G18   29.99S
JOHNS ISLAND   CLOUDY    81  75  83 S12       30.01F
PINOPOLIS        N/A     81  75  83 S6        29.93S
MONCKS CORNER  FAIR      79  73  83 SW12      29.98F
SUMMERVILLE    FAIR      79  73  83 S5        29.99F
BEAUFORT MCAS  PTCLDY    81  76  84 S6        30.01F
BEAUFORT ARPT  FAIR      81  73  78 SW9       30.01F
HILTON HEAD IS CLEAR     82  77  83 S10G20    30.02F HX  91
WALTERBORO     CLOUDY    77  73  88 S9        30.00F
ALLENDALE      FAIR      79  73  83 S7        29.97F

...SOUTHERN MIDLANDS AND PEE DEE...

CITY           SKY/WX    TMP DP  RH WIND       PRES   REMARKS
GEORGETOWN     FAIR      79  77  94 S12G17    30.00F
KINGSTREE      FAIR      77  72  83 S9        29.96F
ORANGEBURG     CLOUDY    78  74  87 S12       29.96F
BARNWELL       MOCLDY    81  77  89 S10       29.96F
AIKEN          FAIR      79  72  78 S13       29.99S
MANNING        FAIR      79  77  94 SW18G28   29.96F
COLUMBIA       CLEAR     82  73  74 S10G20    29.92F
SUMTER         PTCLDY    78  74  86 S16       29.92F
FLORENCE       PTCLDY    78  74  87 S14       29.94F
MYRTLE BEACH   PTCLDY    80  75  84 SW13G22   29.99F
N MYRTLE BEACH CLOUDY    80  76  87 SW17      29.98S

$$

GAZ063-065-086>088-099>101-113>116-118-119-134>141-150-240600-
...SOUTHEAST GEORGIA...

CITY           SKY/WX    TMP DP  RH WIND       PRES   REMARKS
SAVANNAH ARPT  CLEAR     80  73  79 S8        30.03S
HUNTER AAF     CLEAR     80  74  82 SW8       30.00S
FORT STEWART   CLEAR     78  72  82 S7        30.00F
STATESBORO     CLEAR     79  79 100 S7        29.99F
SYLVANIA       CLEAR     78  77  94 S6        30.00F
CLAXTON        FAIR      77  74  91 CALM      30.00F

...CSRA...CENTRAL AND FAR SOUTHEAST GEORGIA...

CITY           SKY/WX    TMP DP  RH WIND       PRES   REMARKS
THOMSON        CLEAR     80  73  79 NW7       30.01S
AUGUSTA-BUSH   CLEAR     83  74  74 S9        29.94F
AUGUSTA-DANIEL CLEAR     83  72  69 SW10G18   29.96F
SWAINSBORO     FAIR      81  73  78 SW6       30.00S
VIDALIA        CLEAR     81  75  83 SW8       30.00F
EASTMAN        FAIR      79  71  75 SW6       30.02S
HAZLEHURST     FAIR      81  76  87 SW8       29.99F
ALMA           CLEAR     79  73  82 SW3       30.02F
WAYCROSS       CLEAR     79  79 100 SW3       30.02F
JESUP          FAIR      77  72  83 CALM      30.03S
BAXLEY         FAIR      79  79 100 CALM      30.01F
BRUNSWICK      CLEAR     81  77  89 S9        30.04F
SAINT SIMONS   CLEAR     82  76  81 SW10      30.05R

$$

SCZ027-028-034-036>038-045-046-048>050-GAZ119-141-240600-
...LAKE AND SUPPLEMENTAL COASTAL OBSERVATIONS...

STATION/POSITION TIME  TEMP    WIND        PRES    WAVE   SWELL
                       AIR SEA DIR/SP/G            HT/PER HT/PER/DIR
                 (UTC) (F)     (DEG/KT/KT) (MB)    (FT/S) (FT/S/D)
WINYAH BAY       0445   80     210/ 13     1016.0R
LAKE MURRAY      0450   81     200/ 14/ 17 1012.5R
ACE BASIN NERRS  0445   81     170/  1     1017.0S
FORT PULASKI     0500   81 84  220/ 12/ 17 1016.9
SAPELO ISLAND    0500   80     200/ 10     1017.0

$$

ANZ835-935-AMZ111-154-330-350-352-354-370-450-454-472-240600-
...C-MAN AND BUOY OBSERVATIONS...

STATION/POSITION TIME  TEMP    WIND        PRES    WAVE   SWELL
                       AIR SEA DIR/SP/G            HT/PER HT/PER/DIR
                 (UTC) (F)     (DEG/KT/KT) (MB)    (FT/S) (FT/S/D)
BUOY 41004       0510   81 81  200/ 19/ 23 1016.0
BUOY 41008       0450   81 82  180/ 19/ 23 1016.6R   4/ 5   2/120/10
FOLLY BEACH CMAN 0500   82     210/ 24/ 26 1017.0S
CAPERS NEARSHORE 0508   85 83  220/ 21/ 27 1015.8R
FRIPP NEARSHORE  0508   82 83  210/ 17/ 25 1015.9F


STATION/POSITION TIME  TEMP    WIND        PRES    WAVE   SWELL
                       AIR SEA DIR/SP/G            HT/PER HT/PER/DIR
                 (UTC) (F)     (DEG/KT/KT) (MB)    (FT/S) (FT/S/D)
5E ST. MARYS GA  0500      80                N/A     4/ 5
FRYING PAN BUOY  0510   81 80  210/ 19/ 27 1015.8
BUOY 41025       0450   81 80  220/ 23/ 27 1013.9F   7/ 6   2/170/10
CAPE LOOKOUT NC  0500   80     220/ 15/ 23 1014.6F
BUOY 41002       0450   81 81  200/ 16/ 19 1018.7F   4/ 9   3/110/ 9
BUOY 41010       0510   82 83  160/ 12/ 16 1018.8
ST AUGUSTINE FL  0500   77 79  170/  7/  7 1018.3R


$$




USA.gov is the U.S. government's official web portal to all federal, state and local government web resources and services.